{"data":{"norad_id":57889,"intl_designator":"2023-145D","name":"YAOGAN-39 02B","alt_names":[],"object_type":"PAYLOAD","status":"ACTIVE","operator":null,"country":"PRC","launch_date":"2023-09-17","launch_site_code":"XICLF","launch_vehicle":null,"mission":null,"orbit_class":"UNKNOWN","rcs_meters":null,"size_class":null,"mass_kg":null,"dimensions":null,"purposes":[],"wikipedia_slug":null,"has_3d_model":false,"image_url":null,"decayed_at":null,"tle_current":{"epoch":"2026-05-25T01:31:09.165792Z","epoch_age_seconds":63430,"freshness":"FRESH","line1":"1 57889U 23145D   26145.06330053  .00006082  00000+0  29728-3 0  9996","line2":"2 57889  34.9918   8.4649 0003879 221.0890 138.9531 15.17573239149370","mean_motion":15.17573239,"eccentricity":0.0003879,"inclination_deg":34.9918,"raan_deg":8.4649,"arg_perigee_deg":221.089,"mean_anomaly_deg":138.9531,"bstar":0.00029728,"rev_number":14937,"period_min":94.888336390861,"perigee_km":510.50432652741,"apogee_km":515.85060829122,"semimajor_km":6891.3144674093,"source":"CELESTRAK","updated_at":"2026-05-25T13:38:00.320622Z"}}}